Tracking 18840 objects as of 18-November-2017
HD Live streaming from Space Station
objects crossing your sky now

HELLAS SAT 1 (DFS 3)

Track HELLAS SAT 1 (DFS 3) now!
HELLAS SAT 1 (DFS 3) is classified as:


NORAD ID: 22175
Int'l Code: 1992-066A
Perigee: 35,927.2 km
Apogee: 35,961.6 km
Inclination: 12.3 °
Period: 1,443.8 minutes
Semi major axis: 42315 km
RCS: 4.2132 m2 (large)
Launch date: October 12, 1992
Source: Greece (GREC)
Launch site: AIR FORCE EASTERN TEST RANGE (AFETR)
aabbcc
Your satellite tracking list
Your tracking list is empty




NASA's NSSDC Master Catalog

Two Line Element Set (TLE):
1 22175U 92066A   17319.99698758 -.00000231 +00000-0 +00000-0 0  9999
2 22175 012.3155 031.3287 0004068 229.1661 135.9393 00.99736663089284
Source of the keplerian elements: AFSPC